RH
15 21 23 18 16 13 15 16 17 17 13 15 31 36 32 30 31 30 54 45 37 36 37 41 41 44 53 53 58 59 64 70 74 78 75 80 77 74 73 72 68 67 65 64
17 22 17 15 14 14 14 15 15 14 11 11 27 28 30 28 31 42 41 42 45 49 38 39 40 45 54 54 63 58 63 64 70 68 67 68 68 70 66 66 71 71 68 64
19 17 13 14 16 13 13 15 13 15 12 11 15 29 32 27 29 36 45 35 42 48 41 42 40 46 48 52 56 55 64 60 67 67 67 66 71 56 72 64 70 69 69 69
15 13 15 15 16 14 17 12 12 12 14 21 12 30 38 29 31 43 49 47 36 49 54 47 37 41 47 55 51 52 56 62 62 64 68 65 66 72 64 64 60 69 73 65
14 13 15 16 14 11 12 10 12 11 12 14 14 18 35 32 31 51 44 44 53 33 45 53 33 35 46 52 57 54 57 62 65 65 68 67 64 62 60 67 74 69 66 65
11 7 8 10 9 10 8 9 9 11 14 22 16 17 26 29 27 37 37 43 51 50 41 50 48 30 48 50 56 58 60 66 69 71 65 68 66 67 66 57 60 65 68 84
10 7 7 5 7 9 10 12 24 24 22 24 22 42 45 44 38 33 44 48 48 60 69 60 59 36 45 50 57 61 60 66 69 77 74 71 68 67 66 67 67 67 67 77
13 11 9 6 8 13 12 14 23 21 30 22 38 56 53 53 43 41 44 53 43 63 64 66 50 35 40 48 55 66 67 69 72 74 79 78 76 68 69 72 71 68 66 66
12 13 8 7 8 10 11 14 11 12 13 22 61 54 47 44 36 47 51 46 57 51 64 86 52 29 43 47 52 62 67 68 74 78 78 77 78 79 77 79 73 77 78 71
9 16 11 7 8 8 8 10 15 19 21 29 48 61 52 53 33 44 44 45 44 46 45 46 36 34 54 42 47 60 60 67 71 71 74 75 77 74 72 73 75 74 65 71
8 10 15 12 17 23 24 15 12 14 18 36 47 47 54 62 62 52 54 44 44 67 68 51 61 58 60 43 47 60 67 66 72 70 73 71 73 74 72 72 68 67 66 73
7 27 38 29 22 18 24 27 21 27 23 29 38 83 50 66 60 61 80 79 78 73 71 58 64 65 65 68 69 65 67 67 67 67 67 67 68 65 64 62 59 62 66 50
14 30 52 45 22 20 31 27 26 19 21 27 42 69 54 71 58 77 82 79 78 91 65 64 69 75 73 78 73 71 65 66 66 59 63 65 60 62 52 49 50 52 59 60
16 26 36 49 38 38 30 24 27 23 27 23 54 68 67 65 68 72 78 87 93 70 70 73 81 76 62 58 54 50 51 49 46 46 47 48 49 50 51 53 51 47 52 58
21 36 33 30 28 28 26 26 28 31 24 22 41 68 52 63 59 73 79 75 78 55 56 56 63 67 53 49 46 45 44 46 48 48 48 49 49 49 51 53 57 61 61 58
14 38 29 32 28 30 25 25 23 24 22 15 28 40 47 51 65 78 68 66 78 86 55 55 55 55 51 44 45 43 44 46 47 47 47 48 46 46 47 50 52 53 55 60
20 34 38 39 35 33 40 28 27 26 21 14 34 34 40 58 70 80 70 64 80 80 51 54 55 55 50 48 42 40 40 42 41 44 44 46 48 49 50 52 58 62 65 68
24 27 31 39 42 54 26 20 22 24 14 12 32 35 35 52 58 76 75 79 81 79 65 60 43 45 40 39 35 36 37 38 39 43 47 48 50 52 54 60 66 68 69 70
15 25 34 33 30 23 20 17 16 17 22 20 31 32 36 47 49 66 68 60 66 69 64 46 37 35 35 35 35 36 39 42 47 53 54 54 57 59 60 61 62 64 68 66
19 24 28 30 27 27 23 15 14 15 37 21 31 33 30 45 66 67 53 48 49 41 37 36 34 45 58 58 52 55 61 70 70 68 68 68 68 68 68 69 70 69 72 76
31 29 28 32 32 27 33 18 14 29 41 34 37 41 44 51 52 46 43 42 37 41 40 46 58 71 71 66 68 77 87 90 86 87 80 78 77 78 77 75 74 73 74 79
29 34 31 33 35 43 34 30 41 42 41 37 40 45 46 47 43 45 45 47 46 54 58 60 65 68 74 74 73 79 88 84 77 78 86 86 82 79 81 79 80 78 76 80
30 30 37 36 59 38 28 31 34 36 43 43 39 38 40 43 46 48 52 54 57 60 64 62 63 68 71 67 71 78 78 81 83 86 92 88 86 84 84 86 87 85 81 77
30 34 37 36 40 33 30 35 36 35 36 36 38 41 44 49 50 56 56 58 61 62 62 63 66 70 70 71 68 72 71 81 86 90 91 89 86 85 89 88 89 89 88 86
34 27 33 31 42 36 36 39 36 38 38 38 39 42 46 50 54 53 60 68 63 60 66 68 72 72 77 74 78 83 83 83 83 83 87 88 87 83 85 87 86 88 88 87
27 32 38 48 53 50 48 42 38 45 44 42 48 50 46 46 50 54 72 60 62 68 67 69 73 75 74 72 77 79 80 79 79 84 78 77 78 76 76 77 74 74 76 78
Wind_Speed
9 3 5 7 10 7 14 4 11 11 7 6 14 17 15 12 12 13 8 8 2 17 18 26 29 29 30 32 32 34 32 28 26 21 16 14 13 13 14 13 12 14 15 18
7 8 7 16 17 8 6 7 6 10 9 5 11 9 17 13 15 18 16 11 10 8 15 19 26 27 33 32 32 32 33 29 29 23 17 14 13 13 12 16 16 18 15 15
8 11 9 12 10 7 6 7 2 8 8 7 3 5 13 11 10 20 13 11 10 5 10 14 21 28 31 31 35 33 28 31 29 22 17 13 11 12 19 12 15 14 16 16
9 12 8 12 15 8 8 4 7 5 3 4 6 3 7 13 12 19 14 14 12 9 3 7 19 26 31 31 36 33 28 29 27 21 18 18 18 16 15 15 10 17 21 20
11 10 11 12 10 7 6 2 6 5 3 4 9 4 8 11 8 18 18 13 7 6 6 9 12 24 30 32 34 33 30 28 26 23 22 19 16 13 11 13 10 14 18 14
10 9 5 8 7 9 4 4 4 4 1 4 9 3 4 11 8 14 17 17 15 8 8 11 21 27 30 33 31 34 33 28 26 24 22 18 14 15 11 7 6 7 11 3
9 10 7 5 3 9 5 3 3 3 1 7 5 8 2 8 13 11 12 11 10 16 6 23 18 19 30 30 30 33 33 30 27 23 22 18 17 12 9 6 7 8 5 5
7 8 9 6 11 9 8 8 5 5 3 5 10 2 3 5 6 3 13 12 15 26 17 13 21 17 29 31 31 30 33 29 26 23 19 16 13 13 12 10 11 7 1 2
3 7 7 8 6 2 6 4 11 6 5 3 4 2 7 6 6 9 9 12 10 16 17 15 25 18 13 28 30 34 33 28 24 21 19 18 15 13 10 5 3 1 5 6
9 1 7 11 6 8 5 5 6 4 3 1 1 3 5 6 7 7 5 8 5 4 17 22 14 24 15 26 30 32 31 28 24 20 20 16 13 10 7 6 5 4 1 4
4 2 5 4 7 5 6 6 5 2 3 3 2 2 4 4 7 8 7 15 9 3 10 5 8 18 23 19 26 32 29 24 21 17 17 13 9 6 5 5 4 2 2 3
4 5 5 5 5 7 8 5 3 3 9 4 6 4 6 9 1 4 11 14 15 22 13 16 16 15 24 24 25 24 18 20 20 17 14 12 10 6 5 6 3 2 6 2
5 2 4 9 7 5 6 5 12 8 1 2 4 4 4 5 1 12 15 25 23 14 19 17 15 16 20 22 21 25 22 18 15 11 11 11 8 5 11 10 7 6 6 4
5 5 7 6 8 3 6 8 10 6 4 3 3 5 6 7 7 12 17 10 23 6 15 16 12 12 18 20 18 20 20 20 20 15 14 12 10 8 8 9 11 13 11 10
7 5 8 6 7 4 3 3 12 15 13 3 8 10 15 12 9 17 20 16 17 8 13 13 11 8 14 14 15 16 14 14 11 10 9 8 6 7 9 12 14 13 13 15
2 7 4 4 2 8 7 6 9 15 17 4 9 7 13 13 6 4 11 9 9 12 10 10 8 12 14 12 10 12 8 6 3 2 1 3 5 7 10 12 15 17 18 18
3 7 5 5 3 7 7 13 2 9 13 7 7 5 13 16 13 15 13 8 12 13 10 13 11 15 19 18 17 8 8 6 5 5 6 8 10 11 12 13 14 15 17 19
11 7 4 5 8 3 9 16 14 9 6 5 12 11 11 15 17 15 11 16 15 10 7 4 8 9 13 16 12 7 3 3 5 7 9 10 11 13 13 12 12 14 16 19
5 4 4 4 1 6 8 9 4 5 6 8 9 10 18 18 20 7 10 5 8 7 8 6 7 12 15 12 9 5 2 2 5 7 6 6 5 6 9 12 14 17 19 24
6 6 5 4 2 2 8 4 8 8 5 7 12 10 10 15 10 2 6 8 8 14 16 17 18 24 27 24 19 19 17 20 19 17 14 12 11 12 14 15 17 20 20 22
3 3 3 2 0 3 9 8 5 4 2 14 14 14 14 12 7 8 8 9 16 20 23 26 28 25 24 22 22 23 21 23 21 21 19 18 17 16 16 18 20 24 25 25
3 3 1 1 1 1 8 8 5 4 8 14 13 10 12 10 12 11 11 11 14 19 24 23 22 21 22 24 23 20 19 20 24 24 21 20 19 18 18 20 20 21 24 26
2 5 4 5 5 4 4 7 8 11 11 9 12 11 12 12 11 10 9 10 15 19 20 22 21 20 21 23 21 19 20 23 24 23 20 22 19 17 18 20 21 21 20 22
5 7 3 6 3 6 8 11 10 12 13 13 12 12 12 10 10 10 10 9 13 19 18 20 20 20 20 20 20 20 21 21 23 22 23 22 22 21 21 24 23 22 22 21
3 3 4 3 6 8 8 11 11 14 13 12 12 12 10 10 9 8 8 9 14 18 19 18 17 15 14 19 19 17 20 23 24 22 22 21 21 22 23 23 23 24 25 26
2 2 2 4 7 6 7 9 13 13 11 9 10 10 11 11 8 11 7 14 15 17 16 15 13 13 14 15 16 17 17 18 20 20 21 22 23 24 23 23 24 27 26 29
Wind_Direction
255 251 285 326 300 140 238 218 132 186 197 182 141 167 172 183 171 138 75 70 297 165 163 163 169 169 171 180 189 190 188 193 189 190 188 202 221 233 234 252 257 238 235 233
276 227 127 283 295 267 230 277 202 164 157 173 173 171 172 190 178 143 124 163 263 300 167 175 176 172 171 177 183 188 191 191 193 189 188 201 212 220 225 245 246 250 249 238
226 240 230 249 275 267 264 252 206 160 182 191 174 195 170 195 126 138 158 165 199 255 180 184 168 174 177 178 178 179 181 187 189 185 186 191 181 250 266 248 234 231 234 233
243 246 225 211 243 216 251 14 321 219 85 212 178 226 206 181 155 157 161 167 183 169 5 256 187 179 181 177 181 180 180 182 189 190 192 194 188 208 236 239 249 233 232 236
249 239 224 254 247 237 240 268 256 267 219 225 278 140 222 174 178 165 158 179 100 145 199 230 201 183 173 172 177 182 184 191 193 193 195 200 203 216 225 234 232 249 254 268
251 276 206 220 219 266 237 120 310 292 215 331 260 215 223 170 177 147 168 155 136 249 329 298 285 186 170 175 175 183 184 189 193 196 197 198 200 203 204 215 254 248 267 14
273 271 275 209 269 262 255 106 307 338 341 227 174 61 126 22 3 20 156 171 135 147 104 275 262 187 165 173 170 179 186 188 194 195 198 205 211 206 212 229 242 237 254 177
198 267 213 195 204 209 188 178 177 235 172 250 46 16 264 314 296 154 131 174 221 186 185 302 227 170 166 168 166 173 183 187 190 194 194 203 206 208 219 229 243 244 99 236
240 254 189 210 229 155 275 210 226 254 278 91 177 204 298 310 344 2 349 342 68 142 139 88 314 298 208 162 167 174 180 185 187 192 196 202 203 201 204 198 197 284 109 87
251 17 303 219 187 249 199 248 3 345 327 258 2 173 220 246 195 222 278 276 305 234 156 158 176 249 277 164 168 177 181 181 187 191 193 194 194 202 195 212 210 227 135 136
245 139 280 75 48 33 347 300 272 224 165 94 209 281 321 214 227 239 337 312 332 45 262 137 147 218 262 178 162 173 169 178 185 196 175 175 163 177 165 162 178 220 190 187
218 92 87 286 313 84 79 3 345 84 283 179 159 283 286 237 205 354 12 322 327 312 225 123 149 128 75 79 97 137 140 148 135 139 150 143 140 147 180 212 200 234 178 179
355 46 57 348 341 16 65 332 319 342 6 358 86 245 247 315 289 69 25 349 326 311 68 74 64 54 59 75 90 101 117 114 116 116 135 145 141 105 88 79 69 61 53 27
71 48 126 168 225 129 289 317 317 315 37 336 157 183 242 214 248 107 93 108 272 91 86 85 70 62 71 82 78 78 81 84 82 75 75 70 57 37 11 350 337 331 326 319
117 127 133 196 230 187 259 297 320 318 308 43 163 180 195 191 190 157 165 167 285 83 90 96 110 112 92 83 85 84 70 65 67 62 49 38 15 340 324 313 310 308 308 307
256 177 121 224 23 314 325 346 301 303 305 46 80 68 178 165 101 110 164 174 75 287 135 119 126 136 141 142 127 117 122 120 93 13 3 306 304 301 300 299 299 303 306 304
290 149 153 183 39 327 312 239 109 293 294 84 91 113 105 156 171 187 203 167 194 236 156 156 173 170 169 164 164 148 164 159 188 204 249 262 271 274 276 283 289 296 304 307
261 150 140 147 144 179 235 196 204 217 27 55 97 93 74 128 197 178 202 186 168 219 105 72 140 153 145 116 102 101 141 237 250 256 248 257 268 272 279 285 293 300 304 306
81 81 52 102 357 317 351 25 77 114 34 91 113 103 105 91 85 49 121 138 126 112 113 108 88 108 93 83 73 72 69 338 345 344 327 313 299 298 295 297 300 298 297 300
81 103 105 50 55 281 275 126 99 91 23 37 94 105 104 97 88 98 36 82 63 70 73 71 62 55 53 44 55 51 42 47 23 4 0 1 353 331 312 302 300 304 306 303
82 55 94 35 182 79 328 29 38 68 212 44 74 87 87 101 133 140 95 70 69 62 53 61 63 68 51 39 42 42 35 20 4 3 352 346 341 335 320 314 309 306 307 307
132 112 211 275 261 132 319 33 85 190 58 82 64 73 92 88 78 74 66 61 59 59 51 51 56 55 48 36 32 29 28 360 349 344 344 337 332 329 325 321 318 313 310 302
70 157 155 130 177 177 59 93 69 83 80 68 76 55 71 68 65 62 57 52 58 58 56 47 43 40 33 22 22 16 1 354 350 348 344 337 331 331 325 320 318 316 310 301
26 13 77 83 171 132 100 65 74 85 87 73 69 71 63 66 60 57 55 50 57 49 47 41 35 31 22 17 4 358 349 345 345 344 338 332 325 322 320 314 310 302 295 292
163 90 122 100 130 100 97 105 95 80 74 78 73 70 59 60 56 58 58 55 53 42 46 44 34 18 23 5 359 360 353 348 347 338 328 326 326 321 317 312 306 298 294 290
134 146 132 212 159 136 142 116 107 95 83 71 84 72 67 73 68 70 79 63 57 52 37 35 26 12 1 357 355 350 351 347 342 337 333 327 325 320 315 311 313 307 305 304